This is the latest recevied weather packets stored in our database for station/object HB9CYX-13. If no packets are shown the sender has not sent any weather packets the latest 10 day(s).
| Time | Temp. | Humidity | Pressure | Rain* | Wind** | Luminosity | Snow |
|---|---|---|---|---|---|---|---|
| 1777828689 | 18.33° C | 46% | 1015.4 hPa | 0 mm | - | - | - |
| 1777827951 | 18.33° C | 50% | 1015.6 hPa | 0 mm | - | - | - |
| 1777827214 | 18.89° C | 43% | 1015.6 hPa | 0 mm | - | - | - |
| 1777826477 | 18.89° C | 43% | 1015.8 hPa | 0 mm | - | - | - |
| 1777825740 | 18.33° C | 43% | 1015.9 hPa | 0 mm | - | - | - |
| 1777825003 | 18.33° C | 44% | 1016.3 hPa | 0 mm | - | - | - |
| 1777824265 | 18.33° C | 44% | 1016.2 hPa | 0 mm | - | - | - |
| 1777823528 | 18.33° C | 42% | 1016.3 hPa | 0 mm | - | - | - |
| 1777822791 | 18.33° C | 43% | 1016.2 hPa | 0 mm | - | - | - |
| 1777822053 | 18.33° C | 44% | 1015.8 hPa | 0 mm | - | - | - |
| 1777821316 | 18.33° C | 45% | 1015.5 hPa | 0 mm | - | - | - |
| 1777820579 | 18.33° C | 47% | 1015.4 hPa | 0 mm | - | - | - |
| 1777819841 | 18.33° C | 49% | 1015.2 hPa | 0 mm | - | - | - |
| 1777819104 | 18.89° C | 51% | 1015 hPa | 0 mm | - | - | - |
| 1777818367 | 20.56° C | 39% | 1014.1 hPa | 0 mm | - | - | - |
| 1777817630 | 21.67° C | 37% | 1013.9 hPa | 0 mm | - | - | - |
| 1777816893 | 23.33° C | 35% | 1013.5 hPa | 0 mm | - | - | - |
| 1777816155 | 24.44° C | 33% | 1013.2 hPa | 0 mm | - | - | - |
| 1777815418 | 25.56° C | 34% | 1013.1 hPa | 0 mm | - | - | - |
| 1777814681 | 25.56° C | 33% | 1013.1 hPa | 0 mm | - | - | - |
| 1777813944 | 27.78° C | 29% | 1012.7 hPa | 0 mm | - | - | - |
| 1777813207 | 27.78° C | 28% | 1012.9 hPa | 0 mm | - | - | - |
| 1777812469 | 26.11° C | 30% | 1013.4 hPa | 0 mm | - | - | - |
| 1777811732 | 25.56° C | 32% | 1013.5 hPa | 0 mm | - | - | - |
| 1777810995 | 26.11° C | 34% | 1013.4 hPa | 0 mm | - | - | - |
* Rain latest hour (hover to see other rain measurements)
** Current wind speed in m/s (hover to see current wind gust speed)